Volver al catálogo

ATLAS 5 CENTAUR R/B

ActivoHEO
NORAD 43227·ROCKET BODY·🇺🇸 United States

Lanzado Mar 1, 2018 desde Cape Canaveral Space Force Station

Loading…

Próximos Pases (próximas 24 horas)

TLE

ActualizadoSource: Space-Track

Época: Sep 13, 2026, 06:51 UTC

1 43227U 18022B   26256.28574405 -.00000126  00000-0  00000-0 0  9997
2 43227  10.6058   3.9681 4956944 101.1800 316.2825  1.88584803 13757

Sigue ATLAS 5 CENTAUR R/B en tiempo real con AllMySat

Download on the App Store